[[{"header":{"parameterUnit":"m.s-1","parameterCategory":1,"la1":30.2991,"la2":30.254,"lo1":-89.0895,"lo2":-89.0444,"dy":0.0017,"dx":0.0017,"nx":28,"ny":28,"refTime":"2024-10-14T03:00:00:Z","depth":0,"parameterNumber":2,"parameterNumberName":"U-component_of_WINDS"},"data":[0,0,0,0,0,0,0,0,0,0,0,0,0,0,0,0,0,0,0,0,0,0,0,0,0,0,0,0,0,0,0,0,0,0,0,0,0,0,0,0,0,0,0,0,0,0,0,0,0,0,0,0,0,0,0,0,0,0,2.3393,2.3395,0,2.3513,2.3514,2.3516,2.3461,2.3458,2.3455,2.3452,2.358,2.3586,2.3592,0,0,0,0,0,0,0,0,0,0,0,0,0,2.3125,2.3131,2.3393,2.3395,2.3396,2.3513,2.3514,2.3516,2.3461,2.3458,2.3454,2.3451,2.3578,2.3585,2.3593,0,0,0,0,0,0,0,0,0,0,0,0,0,2.3243,2.3132,2.3393,2.3383,2.3383,2.3512,2.3514,2.3516,2.3462,2.3458,2.3453,2.3449,2.3575,2.3584,2.3594,2.3741,0,0,2.3622,2.3626,0,0,0,0,0,0,0,0,2.3237,2.3253,2.3383,2.3384,2.3384,2.3467,2.3467,2.3592,2.3463,2.3432,2.3452,2.3447,2.3546,2.3558,2.359,2.3747,2.3753,2.3623,2.3629,2.3633,2.3635,0,0,0,0,0,0,0,2.3229,2.3248,2.3441,2.3385,2.3386,2.3375,2.3387,2.349,2.3513,2.3435,2.3431,2.3446,2.3546,2.3581,2.3593,2.3755,2.3623,2.3631,2.3637,2.364,2.4043,2.4048,0,0,0,0,0,0,2.322,2.3241,2.3437,2.3444,2.3298,2.3384,2.3397,2.3445,2.3512,2.3518,2.3449,2.3443,2.3568,2.3582,2.3597,2.3777,2.3632,2.3641,2.3647,2.4038,2.4044,2.405,0,0,0,0,0,0,2.3214,2.3238,2.3432,2.3342,2.3366,2.3393,2.3448,2.345,2.3485,2.3523,2.3528,2.3481,2.3565,2.3584,2.3706,2.378,2.3645,2.3654,2.4032,2.404,2.4047,2.4136,0,0,0,0,0,0,2.3207,2.3236,2.329,2.3343,2.3371,2.3537,2.3453,2.3456,2.3501,2.3493,2.3554,2.356,2.3563,2.3693,2.3716,2.3791,2.3661,2.4025,2.4035,2.4044,2.4126,2.4146,2.4162,0,0,0,0,0,2.3197,2.3311,2.3293,2.3317,2.3439,2.3541,2.3557,2.3557,2.3507,2.3563,2.3588,2.3558,2.3769,2.3706,2.3731,2.381,2.4021,2.4033,2.4044,2.4118,2.4142,2.4162,0,0,0,0,0,0,2.3266,2.3317,2.3298,2.3432,2.3483,2.3532,2.3603,2.3581,2.3648,2.3639,2.3637,2.3652,2.3779,2.3807,2.3736,2.3959,2.3887,2.3905,2.3936,2.3958,2.3976,2.3967,2.3669,0,0,0,0,0,2.3297,2.3374,2.3415,2.3529,2.3556,2.3575,2.362,2.3615,2.3669,2.369,2.3724,2.3778,2.3857,2.3909,2.3983,2.413,2.4145,2.4198,2.4215,2.423,2.4245,2.4328,2.4353,2.4087,2.4087,2.4087,0,0,2.3362,2.3399,2.3448,2.3544,2.3583,2.3666,2.3593,2.3683,2.3745,2.3704,2.3822,2.3849,2.391,2.4046,2.4108,2.4073,2.4322,2.4245,2.4256,2.4263,2.4343,2.4368,2.439,2.4095,2.4094,2.4093,0,0,2.3521,2.3556,2.3656,2.3697,2.3756,2.3769,2.3794,2.3847,2.3863,2.3981,2.3953,2.4028,2.4163,2.4209,2.4249,2.4431,2.4407,2.4455,2.4549,2.463,2.4651,2.467,2.4737,2.4761,2.447,2.447,2.447,0,2.3594,2.3715,2.3711,2.3804,2.3849,2.3815,2.3919,2.3959,2.4041,2.4074,2.4033,2.4204,2.4243,2.4391,2.4435,2.4469,2.4499,2.4448,2.4648,2.4666,2.4684,2.4748,2.4773,2.4476,2.4475,2.4475,2.4474,0,2.3803,2.3888,2.3963,2.4041,2.4095,2.4192,2.4206,2.4261,2.4254,2.4272,2.4394,2.444,2.4524,2.4559,2.4552,2.4708,2.4685,2.4646,2.4575,2.4715,2.4775,2.48,2.4484,2.4482,2.448,2.4479,0,0,2.4008,2.4086,2.4113,2.415,2.4215,2.4282,2.438,2.4461,2.451,2.4568,2.4653,2.4769,2.4735,2.4782,2.478,2.4851,2.4996,2.4805,2.4807,2.4841,2.5174,2.5203,2.5232,2.498,2.4985,2.4988,2.517,0,2.4174,2.4344,2.4345,2.4502,2.4583,2.4554,2.4639,2.469,2.4711,2.4784,2.4807,2.4891,2.4838,2.4866,2.4935,2.4964,2.5063,2.495,2.5061,2.5065,2.5048,2.5263,2.5293,2.5462,2.5193,2.5197,2.52,0,2.439,2.4455,2.462,2.4676,2.471,2.4787,2.4864,2.4933,2.4992,2.5002,2.5056,2.5044,2.5148,2.5073,2.5218,2.5141,2.5187,2.5208,2.5215,2.5226,2.5142,2.5282,2.5515,2.5541,2.5236,2.5234,2.5231,0,2.4526,2.4655,2.4771,2.4804,2.4871,2.4927,2.4958,2.5012,2.5062,2.513,2.5163,2.5243,2.5287,2.5351,2.5363,2.5307,2.5509,2.5434,2.5523,2.5523,2.5567,2.5565,2.5814,2.5595,2.5594,2.5594,2.5593,0,2.4712,2.4815,2.4834,2.4905,2.5021,2.5023,2.5138,2.5166,2.5215,2.5293,2.5274,2.5349,2.5359,2.5438,2.5448,2.5568,2.5588,2.5601,2.5603,2.5604,2.5602,2.5634,2.5624,2.56,2.5599,2.5598,2.5597,0,2.4883,2.4899,2.5025,2.5079,2.5096,2.5179,2.5227,2.5297,2.5316,2.5417,2.544,2.5471,2.5563,2.5581,2.569,2.5697,2.5841,2.583,2.5821,2.582,2.5909,2.5901,2.6188,2.6227,2.5981,2.5983,2.5985,0,2.5001,2.508,2.5143,2.5194,2.5228,2.531,2.5361,2.5367,2.5422,2.5497,2.5559,2.5649,2.5721,2.587,2.5903,2.5988,2.598,2.6075,2.5993,2.5992,2.5984,2.598,2.599,2.6091,2.6094,2.6096,2.6098,0,2.521,2.5215,2.5289,2.5367,2.5429,2.5491,2.555,2.5593,2.5608,2.5671,2.5764,2.582,2.5932,2.6022,2.6107,2.6142,2.6125,2.6123,2.6149,2.6151,2.6143,2.6151,2.5866,2.6117,2.6115,2.6113,2.6112,2.6112,2.536,2.543,2.5486,2.557,2.5615,2.5671,2.5741,2.5769,2.5846,2.5937,2.5937,2.604,2.61,2.6212,2.6253,2.6335,2.6306,2.6342,2.6351,2.6361,2.637,2.6129,2.6351,2.635,2.635,2.6349,2.6349,0,2.557,2.5605,2.5682,2.5765,2.5833,2.5808,2.5873,2.5932,2.6022,2.6079,2.6151,2.626,2.6349,2.639,2.6478,2.6537,2.6531,2.656,2.6557,2.6566,2.639,2.636,2.6564,2.6564,2.6564,2.6564,2.6563,2.6563,2.5687,2.5804,2.5817,2.5958,2.5993,2.6093,2.6133,2.6186,2.6232,2.6354,2.6427,2.6453,2.6506,2.6598,2.6679,2.669,2.6724,2.6758,2.6764,2.66,2.6578,2.6557,2.6529,2.6765,2.6765,2.6934,2.6935,2.6936]},{"header":{"parameterUnit":"m.s-1","parameterCategory":1,"la1":30.2991,"la2":30.254,"lo1":-89.0895,"lo2":-89.0444,"dy":0.0017,"dx":0.0017,"nx":28,"ny":28,"refTime":"2024-10-14T03:00:00:Z","depth":0,"parameterNumber":3,"parameterNumberName":"V-component_of_WINDS"},"data":[0,0,0,0,0,0,0,0,0,0,0,0,0,0,0,0,0,0,0,0,0,0,0,0,0,0,0,0,0,0,0,0,0,0,0,0,0,0,0,0,0,0,0,0,0,0,0,0,0,0,0,0,0,0,0,0,0,0,0.6787,0.6789,0,0.6931,0.6932,0.6934,0.6912,0.691,0.6907,0.6905,0.7062,0.7068,0.7075,0,0,0,0,0,0,0,0,0,0,0,0,0,0.6501,0.6506,0.6787,0.6789,0.679,0.6931,0.6933,0.6935,0.6913,0.691,0.6907,0.6904,0.706,0.7068,0.7075,0,0,0,0,0,0,0,0,0,0,0,0,0,0.6633,0.6508,0.6787,0.6796,0.6798,0.693,0.6933,0.6935,0.6913,0.691,0.6906,0.6902,0.7057,0.7067,0.7076,0.7211,0,0,0.7106,0.711,0,0,0,0,0,0,0,0,0.6626,0.6644,0.6793,0.6796,0.6799,0.6899,0.6889,0.7028,0.6914,0.687,0.6905,0.6901,0.7012,0.7025,0.706,0.7218,0.7225,0.7107,0.7113,0.7117,0.712,0,0,0,0,0,0,0,0.6617,0.6638,0.6844,0.6795,0.6799,0.6796,0.6811,0.6915,0.696,0.6874,0.6872,0.6889,0.7013,0.7051,0.7064,0.7227,0.7107,0.7115,0.7121,0.7125,0.75,0.7504,0,0,0,0,0,0,0.6604,0.663,0.684,0.6848,0.6701,0.6804,0.682,0.6871,0.6959,0.6969,0.6892,0.6888,0.7036,0.7053,0.7069,0.7231,0.7117,0.7126,0.7132,0.7496,0.7501,0.7505,0,0,0,0,0,0,0.6597,0.6622,0.6834,0.6739,0.6765,0.6813,0.687,0.6876,0.6914,0.6973,0.6982,0.6923,0.7034,0.7056,0.7175,0.7236,0.7131,0.7139,0.7491,0.7498,0.7503,0.7556,0,0,0,0,0,0,0.6589,0.662,0.667,0.674,0.6771,0.6935,0.6874,0.6881,0.693,0.6925,0.7004,0.7013,0.7033,0.716,0.7184,0.7248,0.7147,0.7486,0.7494,0.7501,0.7549,0.7563,0.7576,0,0,0,0,0,0.6579,0.6682,0.6673,0.6698,0.6833,0.6938,0.6956,0.6973,0.6935,0.6987,0.7024,0.7011,0.7225,0.7172,0.7199,0.7267,0.7482,0.7492,0.7501,0.7543,0.7561,0.7575,0,0,0,0,0,0,0.6623,0.6692,0.6682,0.681,0.6868,0.6934,0.7,0.6992,0.7064,0.7057,0.7079,0.7097,0.7217,0.7254,0.7194,0.74,0.7349,0.7364,0.7372,0.7389,0.7402,0.7391,0.7155,0,0,0,0,0,0.6646,0.6723,0.678,0.6888,0.6916,0.6953,0.7,0.7007,0.7069,0.7095,0.7141,0.7204,0.7285,0.7339,0.7417,0.7554,0.7571,0.7613,0.7626,0.7637,0.765,0.7724,0.7743,0.7536,0.7536,0.7536,0,0,0.6698,0.6745,0.6793,0.6897,0.6943,0.7024,0.6974,0.7063,0.7123,0.711,0.7223,0.7259,0.7331,0.7459,0.7517,0.7493,0.7711,0.7649,0.7657,0.7665,0.7735,0.7755,0.7772,0.7542,0.7541,0.754,0,0,0.6833,0.6876,0.6969,0.7014,0.7082,0.7106,0.7128,0.7195,0.7217,0.733,0.7321,0.7395,0.7535,0.7586,0.763,0.778,0.7771,0.7805,0.7875,0.7946,0.7963,0.7977,0.8031,0.8049,0.7818,0.7818,0.7818,0,0.6889,0.7008,0.7019,0.7107,0.7153,0.714,0.7235,0.728,0.7372,0.7406,0.7376,0.7549,0.7597,0.7736,0.7772,0.7808,0.7835,0.7797,0.7959,0.7974,0.7988,0.8039,0.8059,0.7822,0.7822,0.7821,0.7821,0,0.7073,0.7155,0.7223,0.7307,0.7361,0.7453,0.748,0.7534,0.7536,0.7562,0.7678,0.7734,0.7822,0.7856,0.7861,0.7995,0.7977,0.7953,0.7902,0.8011,0.8059,0.8079,0.7827,0.7826,0.7825,0.7824,0,0,0.7243,0.7328,0.7353,0.739,0.7463,0.7528,0.7619,0.7701,0.7747,0.781,0.7888,0.8004,0.7981,0.8031,0.8042,0.8104,0.8218,0.8073,0.8074,0.8098,0.8369,0.8387,0.8409,0.8212,0.8216,0.8219,0.8363,0,0.7384,0.7541,0.7552,0.7695,0.7771,0.7758,0.7837,0.7891,0.7918,0.7988,0.8019,0.8101,0.8064,0.8094,0.8155,0.8191,0.8273,0.8181,0.8286,0.8289,0.8268,0.8434,0.8454,0.8588,0.8382,0.8385,0.8387,0,0.7571,0.7635,0.7783,0.7843,0.7875,0.7946,0.8021,0.8088,0.8149,0.8164,0.8218,0.8219,0.8313,0.8257,0.8388,0.8325,0.8368,0.8392,0.8398,0.8409,0.8346,0.8451,0.8631,0.8651,0.8417,0.8415,0.8413,0,0.7679,0.7802,0.7907,0.7939,0.8011,0.8061,0.8094,0.8151,0.8199,0.8265,0.8297,0.8375,0.8418,0.848,0.8502,0.8459,0.8632,0.8578,0.8648,0.8648,0.8687,0.8684,0.8876,0.8714,0.8713,0.8713,0.8712,0,0.7836,0.7928,0.7956,0.802,0.8122,0.8135,0.8237,0.8268,0.8318,0.8389,0.8384,0.8451,0.8476,0.8548,0.8567,0.8672,0.8692,0.8708,0.8712,0.8708,0.8706,0.8738,0.873,0.8718,0.8717,0.8716,0.8715,0,0.7975,0.7997,0.811,0.8167,0.8183,0.8256,0.8306,0.8369,0.8393,0.8483,0.8505,0.8544,0.8628,0.8655,0.8759,0.8771,0.8894,0.889,0.8872,0.8873,0.8942,0.8935,0.9162,0.9192,0.9009,0.9011,0.9012,0,0.8074,0.8143,0.8206,0.8252,0.8285,0.8359,0.8407,0.8422,0.8472,0.8545,0.8599,0.8682,0.8748,0.8884,0.8923,0.9001,0.8999,0.9073,0.9011,0.9005,0.9,0.8996,0.9003,0.9085,0.9087,0.9089,0.909,0,0.8248,0.8254,0.8321,0.8392,0.8447,0.8505,0.856,0.8598,0.8622,0.8679,0.8762,0.8814,0.8916,0.8999,0.9077,0.9114,0.9107,0.9108,0.9129,0.9127,0.9114,0.9121,0.8904,0.9104,0.9102,0.9101,0.9101,0.91,0.837,0.843,0.8482,0.8557,0.8599,0.865,0.8711,0.874,0.8809,0.8892,0.8897,0.8988,0.9046,0.915,0.919,0.9262,0.9241,0.9271,0.9279,0.9286,0.9291,0.9101,0.9277,0.9276,0.9276,0.9276,0.9275,0,0.8543,0.8575,0.8643,0.8718,0.8777,0.876,0.882,0.8871,0.8949,0.9002,0.9066,0.9162,0.9241,0.9284,0.9363,0.9412,0.9411,0.9433,0.943,0.9438,0.9306,0.928,0.9432,0.9432,0.9432,0.9432,0.9432,0.9432,0.864,0.874,0.8752,0.8874,0.8906,0.8992,0.9027,0.9074,0.9116,0.9222,0.9286,0.9312,0.9361,0.9443,0.9515,0.9525,0.9555,0.9579,0.9588,0.9464,0.9448,0.9432,0.9408,0.9585,0.9585,0.9714,0.9715,0.9716]}]]